DW4892 Weather Reports


Display with metric or nautical units.
time (UTC)temp
F
wind
direction
speed
MPH
gust
MPH
rain 1hr
in
rain 24hr
in
rain mn
in
humidity
%
barometer
mb
20260903224523 86 216 2.0 8.0 0.00 0.00 0.00 17 998.3
20260903223057 87 175 2.0 5.0 0.00 0.00 0.00 20 998.2
20260903221528 87 338 2.0 9.0 0.00 0.00 0.00 20 998.2
20260903220025 88 250 3.0 6.0 0.00 0.00 0.00 18 998.6
20260903214523 88 197 2.0 4.0 0.00 0.00 0.00 19 998.7
20260903213026 89 202 2.0 8.0 0.00 0.00 0.00 20 998.8
20260903211530 87 154 2.0 8.0 0.00 0.00 0.00 20 999.1
20260903210025 89 175 4.0 10.0 0.00 0.00 0.00 20 999.2
20260903204522 89 173 3.0 8.0 0.00 0.00 0.00 19 999.3
20260903203027 89 161 1.0 8.0 0.00 0.00 0.00 25 999.4
20260903201512 88 174 2.0 5.0 0.00 0.00 0.00 20 999.7
20260903200024 87 291 2.0 10.0 0.00 0.00 0.00 23 999.7
20260903194517 89 202 2.0 8.0 0.00 0.00 0.00 21 999.9
20260903193023 90 71 1.0 7.0 0.00 0.00 0.00 22 1000.0
20260903191529 88 21 2.0 7.0 0.00 0.00 0.00 21 1000.2
20260903190024 87 47 1.0 5.0 0.00 0.00 0.00 22 1000.4
20260903184521 87 301 1.0 5.0 0.00 0.00 0.00 26 1000.6
20260903183014 85 132 2.0 5.0 0.00 0.00 0.00 25 1001.2
20260903181529 87 203 3.0 6.0 0.00 0.00 0.00 26 1001.1
20260903180026 85 204 1.0 6.0 0.00 0.00 0.00 25 1001.6
20260903174524 83 142 1.0 8.0 0.00 0.00 0.00 27 1001.8
20260903173019 83 333 1.0 6.0 0.00 0.00 0.00 29 1001.9
20260903171515 82 180 2.0 6.0 0.00 0.00 0.00 27 1002.0
20260903170029 81 132 1.0 8.0 0.00 0.00 0.00 26 1002.0
20260903164527 82 349 1.0 9.0 0.00 0.00 0.00 31 1002.0
20260903163019 80 200 1.0 5.0 0.00 0.00 0.00 29 1001.9
20260903161514 80 175 2.0 6.0 0.00 0.00 0.00 30 1002.0
20260903160034 79 319 1.0 5.0 0.00 0.00 0.00 30 1002.2
20260903154534 77 162 1.0 4.0 0.00 0.00 0.00 33 1002.2
20260903153027 75 156 1.0 4.0 0.00 0.00 0.00 37 1002.3
20260903151520 74 131 1.0 4.0 0.00 0.00 0.00 38 1002.5
20260903150034 71 156 1.0 4.0 0.00 0.00 0.00 40 1002.7
20260903144542 70 149 1.0 4.0 0.00 0.00 0.00 41 1002.6
20260903143038 68 161 1.0 3.0 0.00 0.00 0.00 43 1002.7
20260903141518 67 257 0.0 2.0 0.00 0.00 0.00 45 1002.7
20260903140022 65 149 0.0 2.0 0.00 0.00 0.00 46 1002.5
20260903134529 64 150 1.0 3.0 0.00 0.00 0.00 48 1002.5
20260903133022 63 154 1.0 2.0 0.00 0.00 0.00 47 1002.3
20260903131520 62 173 0.0 2.0 0.00 0.00 0.00 48 1002.2
20260903130014 62 208 0.0 1.0 0.00 0.00 0.00 48 1002.1
20260903124534 61 221 0.0 1.0 0.00 0.00 0.00 48 1001.8
20260903123026 60 264 0.0 2.0 0.00 0.00 0.00 49 1001.6
20260903121529 60 218 0.0 2.0 0.00 0.00 0.00 50 1001.4
20260903120034 60 232 0.0 1.0 0.00 0.00 0.00 50 1001.3
20260903114531 61 169 1.0 3.0 0.00 0.00 0.00 49 1001.2
20260903113039 60 213 1.0 3.0 0.00 0.00 0.00 51 1001.2
20260903111520 60 246 0.0 3.0 0.00 0.00 0.00 52 1001.3
20260903110059 61 221 0.0 2.0 0.00 0.00 0.00 51 1001.2
20260903104550 60 211 0.0 2.0 0.00 0.00 0.00 54 1001.1
20260903103029 61 180 0.0 3.0 0.00 0.00 0.00 53 1001.0
20260903101522 60 269 0.0 1.0 0.00 0.00 0.00 57 1000.9
20260903100037 60 254 1.0 3.0 0.00 0.00 0.00 60 1000.7
20260903094543 60 211 0.0 2.0 0.00 0.00 0.00 62 1000.8
20260903093018 60 150 1.0 4.0 0.00 0.00 0.00 61 1000.9
20260903091515 61 180 0.0 2.0 0.00 0.00 0.00 61 1001.0
20260903090034 60 161 0.0 2.0 0.00 0.00 0.00 63 1001.1
20260903084525 59 175 0.0 2.0 0.00 0.00 0.00 64 1001.1
20260903083022 60 185 0.0 2.0 0.00 0.00 0.00 64 1000.8
20260903081556 60 197 0.0 1.0 0.00 0.00 0.00 64 1000.8
20260903080029 61 196 0.0 0.0 0.00 0.00 0.00 62 1001.0
20260903074522 61 195 0.0 1.0 0.00 0.00 0.00 61 1001.2
20260903073029 61 190 0.0 1.0 0.00 0.00 0.00 62 1001.1
20260903071523 62 166 0.0 2.0 0.00 0.00 0.00 62 1001.2
20260903070028 61 173 0.0 2.0 0.00 0.00 0.00 62 1001.3
20260903064521 62 194 0.0 2.0 0.00 0.00 0.00 62 1001.3
20260903063021 62 235 0.0 0.0 0.00 0.00 0.00 63 1001.2
20260903061557 62 236 0.0 2.0 0.00 0.00 0.00 62 1001.3
20260903060028 62 221 0.0 2.0 0.00 0.00 0.00 62 1001.2
20260903054523 63 215 0.0 3.0 0.00 0.00 0.00 61 1001.4
20260903053020 63 240 0.0 0.0 0.00 0.00 0.00 60 1001.2
20260903051610 63 239 0.0 1.0 0.00 0.00 0.00 59 1001.5
20260903050023 64 238 0.0 1.0 0.00 0.00 0.00 58 1001.5
20260903044521 64 292 1.0 2.0 0.00 0.00 0.00 57 1001.5
20260903043146 65 61 0.0 2.0 0.00 0.00 0.00 56 1001.3
20260903041524 66 63 0.0 2.0 0.00 0.00 0.00 54 1001.5
20260903040022 66 73 0.0 2.0 0.00 0.00 0.00 53 1001.5
20260903034532 66 313 0.0 2.0 0.00 0.00 0.00 52 1001.3
20260903033016 67 294 0.0 1.0 0.00 0.00 0.00 50 1001.1
20260903031528 68 325 0.0 2.0 0.00 0.00 0.00 48 1000.8
20260903030021 70 88 1.0 5.0 0.00 0.00 0.00 45 1000.8
20260903024525 71 34 1.0 6.0 0.00 0.00 0.00 44 1000.7
20260903023055 72 293 1.0 7.0 0.00 0.00 0.00 44 1000.6
20260903021525 74 130 2.0 7.0 0.00 0.00 0.00 38 999.6
20260903020025 75 7 1.0 6.0 0.00 0.00 0.00 37 999.3
20260903014521 75 238 1.0 3.0 0.00 0.00 0.00 40 999.6
20260903013010 75 313 1.0 6.0 0.00 0.00 0.00 39 998.7
20260903011529 77 283 2.0 6.0 0.00 0.00 0.00 34 998.6
20260903010023 78 50 3.0 7.0 0.00 0.00 0.00 32 998.5
20260903004522 78 83 0.0 4.0 0.00 0.00 0.00 33 998.5
20260903003017 79 45 1.0 4.0 0.00 0.00 0.00 33 998.5
20260903001530 80 86 2.0 8.0 0.00 0.00 0.00 30 998.5
20260903000027 80 75 3.0 9.0 0.00 0.00 0.00 30 998.3
20260902234524 82 77 5.0 12.0 0.00 0.00 0.00 30 998.2
20260902233018 82 52 4.0 11.0 0.00 0.00 0.00 30 998.4
20260902231534 83 50 3.0 10.0 0.00 0.00 0.00 29 998.7
20260902230025 83 61 5.0 14.0 0.00 0.00 0.00 29 998.7